Weather History for Cairns, QU

Change the Weather History Date:

Saturday, December 21, 2013

  Actual Average Record
Temperature  
Mean Temperature 80 °F -  
Max Temperature 88 °F 89 °F 93 °F (2005)
Min Temperature 72 °F 74 °F 71 °F (2000)
Cooling Degree Days 15    
Growing Degree Days 30 (Base 50)    
Moisture  
Dew Point 68 °F    
Average Humidity 66    
Maximum Humidity 83    
Minimum Humidity 43    
Precipitation  
Precipitation 0.01 in 0.44 in - ()
Sea Level Pressure  
Sea Level Pressure 29.88 in    
Wind  
Wind Speed 11 mph ()    
Max Wind Speed 21 mph    
Max Gust Speed -    
Visibility 6.7 miles    
Events Rain    
Averages and records for this station are not official NWS values.
T = Trace of Precipitation, MM = Missing Value Source: Averaged Metar Reports

Daily Weather History Graph

Daily Weather History Graph

Search for Another Location

Airport:

Trip Planner

Search our weather history database for the weather conditions in past years. The results will help you decide how hot, cold, wet, or windy it might be!

Date:

Astronomy

Dec. 21, 2013 Rise Set
Actual Time 5:40 AM AEST 6:49 PM AEST
Civil Twilight 5:16 AM AEST 7:13 PM AEST
Nautical Twilight 4:48 AM AEST 7:41 PM AEST
Astronomical Twilight 4:19 AM AEST 8:10 PM AEST
Moon 9:31 PM AEST (12/21) 8:36 AM AEST (12/21)
Length of Visible Light 13h 56m
Length of Day
13h 08m
Waning Gibbous, 88% of the Moon is Illuminated
Dec 21
Waning Gibbous
Dec 25
Last Quarter
Jan 1
New
Jan 8
First Quarter
Jan 16
Full

Hourly Weather History & Observations

Time (AEST) Temp. Heat Index Dew Point Humidity Pressure Visibility Wind Dir Wind Speed Gust Speed Precip Events Conditions
12:00 AM 76 °F - 68 °F 69% 29.93 in - SSE 9.2 mph - -  
12:00 AM 75.2 °F - 68.0 °F 78% 29.92 in 6.2 mi SSE 9.2 mph - N/A   Mostly Cloudy
12:30 AM 75.2 °F - 68.0 °F 78% 29.92 in 6.2 mi SSE 10.4 mph - N/A   Scattered Clouds
1:00 AM 75 °F - 67 °F 71% 29.91 in - SSE 10.4 mph - -  
1:00 AM 75.2 °F - 68.0 °F 78% 29.89 in 6.2 mi SSE 10.4 mph - N/A   Partly Cloudy
1:30 AM 73.4 °F - 68.0 °F 83% 29.89 in 6.2 mi SSE 10.4 mph - N/A   Partly Cloudy
2:00 AM 73.4 °F - 68.0 °F 83% 29.89 in 6.2 mi SSE 10.4 mph - N/A   Mostly Cloudy
2:30 AM 75.2 °F - 68.0 °F 78% 29.89 in 6.2 mi SSE 10.4 mph - N/A   Scattered Clouds
3:00 AM 75 °F - 67 °F 69% 29.87 in - South 9.2 mph - -  
3:00 AM 75.2 °F - 66.2 °F 73% 29.86 in 6.2 mi South 9.2 mph - N/A   Mostly Cloudy
3:30 AM 75.2 °F - 66.2 °F 73% 29.86 in 6.2 mi South 8.1 mph - N/A   Scattered Clouds
4:00 AM 76 °F - 67 °F 67% 29.87 in - South 10.4 mph - -  
4:00 AM 75.2 °F - 68.0 °F 78% 29.86 in 6.2 mi South 10.4 mph - N/A   Scattered Clouds
4:30 AM 73.4 °F - 68.0 °F 83% 29.86 in 6.2 mi SE 8.1 mph - N/A   Partly Cloudy
5:00 AM 73.4 °F - 68.0 °F 83% 29.86 in 6.2 mi SE 10.4 mph - N/A   Partly Cloudy
5:30 AM 75.2 °F - 68.0 °F 78% 29.86 in 6.2 mi South 10.4 mph - N/A   Partly Cloudy
6:00 AM 75 °F - 68 °F 72% 29.88 in - South 10.4 mph - -  
6:00 AM 75.2 °F - 68.0 °F 78% 29.86 in 6.2 mi South 10.4 mph - N/A   Partly Cloudy
6:30 AM 75.2 °F - 68.0 °F 78% 29.89 in 6.2 mi South 10.4 mph - N/A   Partly Cloudy
7:00 AM 77 °F - 69 °F 68% 29.91 in - SSE 10.4 mph - -  
7:00 AM 77.0 °F - 68.0 °F 74% 29.89 in 6.2 mi SSE 10.4 mph - N/A   Partly Cloudy
7:30 AM 78.8 °F - 68.0 °F 69% 29.89 in 6.2 mi South 10.4 mph - N/A   Partly Cloudy
8:00 AM 80.6 °F 83.2 °F 68.0 °F 65% 29.92 in 6.2 mi SSE 12.7 mph - N/A   Partly Cloudy
8:30 AM 82.4 °F 85.4 °F 68.0 °F 62% 29.92 in 6.2 mi SSE 12.7 mph - N/A   Partly Cloudy
9:00 AM 81 °F - 68 °F 57% 29.92 in 19 mi SSE 13.8 mph - -   Partly Cloudy
9:00 AM 80.6 °F 83.2 °F 68.0 °F 65% 29.92 in 6.2 mi SSE 13.8 mph - N/A   Scattered Clouds
9:30 AM 84.2 °F 86.6 °F 66.2 °F 55% 29.92 in 6.2 mi SSE 17.3 mph - N/A   Partly Cloudy
10:00 AM 85 °F - 68 °F 47% 29.93 in - SE 16.1 mph - -  
10:00 AM 86.0 °F 89.4 °F 68.0 °F 55% 29.92 in 6.2 mi SE 16.1 mph - N/A   Scattered Clouds
10:30 AM 86.0 °F 89.4 °F 68.0 °F 55% 29.92 in 6.2 mi SE 16.1 mph - N/A   Scattered Clouds
11:00 AM 86.0 °F 88.2 °F 66.2 °F 51% 29.89 in 6.2 mi SE 17.3 mph - N/A   Scattered Clouds
11:30 AM 86.0 °F 88.2 °F 66.2 °F 51% 29.89 in 6.2 mi SE 17.3 mph - N/A   Scattered Clouds
12:00 PM 84 °F - 67 °F 48% 29.90 in - ESE 16.1 mph - -  
12:00 PM 84.2 °F 87.3 °F 68.0 °F 58% 29.89 in 6.2 mi ESE 16.1 mph - N/A   Scattered Clouds
12:30 PM 86.0 °F 88.2 °F 66.2 °F 51% 29.89 in 6.2 mi ESE 16.1 mph - N/A   Scattered Clouds
1:00 PM 88 °F - 69 °F 43% 29.88 in - ESE 18.4 mph - -  
1:00 PM 87.8 °F 91.4 °F 68.0 °F 52% 29.86 in 6.2 mi ESE 18.4 mph - N/A   Scattered Clouds
2:00 PM 86.0 °F 88.2 °F 66.2 °F 51% 29.86 in 6.2 mi ESE 16.1 mph - N/A   Scattered Clouds
2:30 PM 84.2 °F 88.4 °F 69.8 °F 62% 29.86 in 6.2 mi SSE 20.7 mph - N/A   Scattered Clouds
3:00 PM 84 °F - 69 °F 51% 29.85 in 16 mi SE 12.7 mph - -   Partly Cloudy
3:00 PM 84.2 °F 87.3 °F 68.0 °F 58% 29.83 in 6.2 mi SE 12.7 mph - N/A   Mostly Cloudy
3:30 PM 86.0 °F 89.4 °F 68.0 °F 55% 29.83 in 6.2 mi SE 17.3 mph - N/A   Scattered Clouds
4:00 PM 83 °F - 67 °F 48% 29.86 in - SE 19.6 mph - -  
4:00 PM 82.4 °F 84.6 °F 66.2 °F 58% 29.83 in 6.2 mi SE 19.6 mph - N/A   Mostly Cloudy
4:30 PM 82.4 °F 85.4 °F 68.0 °F 62% 29.83 in 6.2 mi SSE 16.1 mph - N/A   Scattered Clouds
5:00 PM 84.2 °F 87.3 °F 68.0 °F 58% 29.83 in 6.2 mi South 13.8 mph - N/A   Scattered Clouds
5:30 PM 82.4 °F 85.4 °F 68.0 °F 62% 29.86 in 6.2 mi SE 18.4 mph - N/A   Scattered Clouds
6:00 PM 82 °F - 67 °F 50% 29.86 in - SSE 15.0 mph - -   Overcast
6:00 PM 82.4 °F 84.6 °F 66.2 °F 58% 29.86 in 6.2 mi SSE 15.0 mph - N/A   Partly Cloudy
6:30 PM 80.6 °F 83.2 °F 68.0 °F 65% 29.86 in 6.2 mi SE 18.4 mph - N/A   Scattered Clouds
7:00 PM 80 °F - 69 °F 62% 29.88 in - SE 13.8 mph - -  
7:00 PM 78.8 °F - 69.8 °F 74% 29.86 in 6.2 mi SE 13.8 mph - N/A   Scattered Clouds
7:30 PM 78.8 °F - 69.8 °F 74% 29.89 in 6.2 mi SSE 12.7 mph - N/A   Scattered Clouds
8:00 PM 77.0 °F - 69.8 °F 78% 29.89 in 6.2 mi South 10.4 mph - N/A   Light Drizzle
8:30 PM 77.0 °F - 69.8 °F 78% 29.89 in 6.2 mi South 12.7 mph - N/A   Scattered Clouds
9:00 PM 77 °F - 70 °F 73% 29.91 in - South 10.4 mph - -   Overcast
9:00 PM 77.0 °F - 69.8 °F 78% 29.89 in 6.2 mi South 10.4 mph - N/A Rain Light Rain Showers
9:30 PM 77.0 °F - 69.8 °F 78% 29.89 in 6.2 mi South 10.4 mph - N/A   Scattered Clouds
10:00 PM 76 °F - 70 °F 75% 29.92 in - South 10.4 mph - -  
10:00 PM 77.0 °F - 69.8 °F 78% 29.92 in 6.2 mi South 10.4 mph - N/A   Mostly Cloudy
10:30 PM 77.0 °F - 69.8 °F 78% 29.92 in 6.2 mi South 8.1 mph - N/A   Mostly Cloudy
11:00 PM 78.8 °F - 66.2 °F 65% 29.89 in 6.2 mi South 11.5 mph - N/A   Mostly Cloudy
11:30 PM 77.0 °F - 66.2 °F 69% 29.89 in 6.2 mi South 10.4 mph - N/A   Scattered Clouds